Weather History for WIII - December, 2013

Change the Weather History Date:

Wednesday, December 4, 2013

  Actual Average Record
Temperature  
Mean Temperature 84 °F -  
Max Temperature 93 °F - - ()
Min Temperature 75 °F - - ()
Cooling Degree Days 19    
Growing Degree Days 34 (Base 50)    
Moisture  
Dew Point 73 °F    
Average Humidity 76    
Maximum Humidity 89    
Minimum Humidity 42    
Precipitation  
Precipitation 0.00 in - - ()
Sea Level Pressure  
Sea Level Pressure 29.77 in    
Wind  
Wind Speed 7 mph ()    
Max Wind Speed 24 mph    
Max Gust Speed -    
Visibility 5.0 miles    
Events Rain , Thunderstorm    
T = Trace of Precipitation, MM = Missing Value Source: Averaged Metar Reports

Daily Weather History Graph

Daily Weather History Graph

Search for Another Location

Airport or City:

Trip Planner

Search our weather history database for the weather conditions in past years. The results will help you decide how hot, cold, wet, or windy it might be!

Date:

Astronomy

Dec. 04, 2013 Rise Set
Actual Time 5:29 AM WIB 5:57 PM WIB
Civil Twilight 5:07 AM WIB 6:19 PM WIB
Nautical Twilight 4:40 AM WIB 6:46 PM WIB
Astronomical Twilight 4:14 AM WIB 7:12 PM WIB
Moon 6:34 AM WIB (12/4) 7:21 PM WIB (12/4)
Length of Visible Light 13h 12m
Length of Day
12h 27m
New Moon, 2% of the Moon is Illuminated
Dec 4
New Moon
Dec 9
First Quarter
Dec 17
Full
Dec 25
Last Quarter
Jan 1
New

Hourly Weather History & Observations

Time (WIB) Temp. Heat Index Dew Point Humidity Pressure Visibility Wind Dir Wind Speed Gust Speed Precip Events Conditions
12:00 AM 78.8 °F - 73.4 °F 83% 29.80 in 4.3 mi SW 6.9 mph - N/A   Mostly Cloudy
12:30 AM 78.8 °F - 75.2 °F 89% 29.77 in 6.2 mi SW 4.6 mph - N/A   Scattered Clouds
1:00 AM 78 °F - 75 °F 89% 29.79 in 4 mi WSW 6.9 mph - -   Haze
1:00 AM 78.8 °F - 73.4 °F 83% 29.77 in 3.7 mi WSW 5.8 mph - N/A   Mostly Cloudy
1:30 AM 77.0 °F - 73.4 °F 89% 29.77 in 3.7 mi WSW 5.8 mph - N/A   Mostly Cloudy
2:00 AM 75.2 °F - 71.6 °F 89% 29.74 in 6.2 mi WSW 6.9 mph - N/A   Partly Cloudy
3:00 AM 75.2 °F - 71.6 °F 89% 29.74 in 6.2 mi WSW 5.8 mph - N/A   Partly Cloudy
3:30 AM 75.2 °F - 71.6 °F 89% 29.74 in 4.3 mi SW 2.3 mph - N/A   Unknown
4:00 AM 78 °F - 75 °F 89% 29.76 in 4 mi West 5.8 mph - -   Haze
4:00 AM 75.2 °F - 71.6 °F 89% 29.74 in 3.1 mi South 2.3 mph - N/A   Partly Cloudy
4:30 AM 77.0 °F - 71.6 °F 83% 29.77 in 4.3 mi SSE 2.3 mph - N/A   Partly Cloudy
5:00 AM 77.0 °F - 71.6 °F 83% 29.77 in 4.3 mi SSW 3.5 mph - N/A   Partly Cloudy
5:30 AM 75.2 °F - 71.6 °F 89% 29.77 in 6.2 mi SW 4.6 mph - N/A   Partly Cloudy
6:00 AM 77.0 °F - 73.4 °F 89% 29.80 in 5.0 mi SW 5.8 mph - N/A   Partly Cloudy
6:30 AM 80.6 °F 85.4 °F 73.4 °F 79% 29.80 in 4.3 mi WSW 4.6 mph - N/A   Partly Cloudy
7:00 AM 81 °F - 75 °F 76% 29.81 in 6 mi WSW 11.5 mph - -   Scattered Clouds
7:00 AM 80.6 °F 85.4 °F 73.4 °F 79% 29.80 in 5.6 mi WSW 10.4 mph - N/A   Partly Cloudy
7:30 AM 82.4 °F 88.2 °F 73.4 °F 74% 29.80 in 6.2 mi WSW 8.1 mph - N/A   Partly Cloudy
8:00 AM 82.4 °F 88.2 °F 73.4 °F 74% 29.80 in 5.6 mi WSW 10.4 mph - N/A   Partly Cloudy
8:30 AM 84.2 °F 90.9 °F 73.4 °F 70% 29.80 in 5.6 mi WSW 9.2 mph - N/A   Partly Cloudy
9:00 AM 86.0 °F 95.1 °F 75.2 °F 70% 29.80 in 5.6 mi WSW 10.4 mph - N/A   Partly Cloudy
9:30 AM 87.8 °F 95.6 °F 73.4 °F 62% 29.80 in 5.6 mi WSW 10.4 mph - N/A   Partly Cloudy
10:00 AM 88 °F - 74 °F 55% 29.81 in 5 mi West 4.6 mph - -   Scattered Clouds
10:00 AM 87.8 °F 95.6 °F 73.4 °F 62% 29.80 in 5.6 mi WSW 6.9 mph - N/A   Partly Cloudy
10:30 AM 89.6 °F 96.2 °F 71.6 °F 55% 29.80 in 6.2 mi WSW 8.1 mph - N/A   Partly Cloudy
11:00 AM 93.2 °F 100.5 °F 71.6 °F 49% 29.77 in 5.0 mi WSW 5.8 mph - N/A   Partly Cloudy
11:30 AM 95.0 °F 101.3 °F 69.8 °F 44% 29.74 in 5.6 mi WNW 6.9 mph - N/A   Scattered Clouds
12:00 PM 95.0 °F 104.5 °F 73.4 °F 49% 29.74 in 6.2 mi WNW 6.9 mph - N/A   Partly Cloudy
12:30 PM 93.2 °F 98.8 °F 69.8 °F 46% 29.71 in 6.2 mi West 9.2 mph - N/A   Scattered Clouds
1:00 PM 92 °F - 72 °F 42% 29.72 in 5 mi West 11.5 mph - -   Partly Cloudy
1:00 PM 95.0 °F 101.3 °F 69.8 °F 44% 29.74 in 5.0 mi West 11.5 mph - N/A   Scattered Clouds
1:30 PM 91.4 °F 102.5 °F 75.2 °F 59% 29.71 in 5.0 mi WNW 11.5 mph - N/A   Mostly Cloudy
2:00 PM 89.6 °F 102.2 °F 77.0 °F 66% 29.71 in 5.0 mi NNW 12.7 mph - N/A   Scattered Clouds
2:30 PM 89.6 °F 99.8 °F 75.2 °F 62% 29.68 in 4.3 mi NNW 13.8 mph - N/A   Scattered Clouds
3:00 PM 87.8 °F 97.6 °F 75.2 °F 66% 29.68 in 5.6 mi NW 24.2 mph - N/A   Scattered Clouds
3:30 PM 82.4 °F 87.2 °F 71.6 °F 70% 29.68 in 4.3 mi SW 17.3 mph - N/A Rain , Thunderstorm Thunderstorms and Rain
4:00 PM 83 °F - 75 °F 72% 29.73 in 4 mi South 15.0 mph - - Rain , Thunderstorm Thunderstorms and Rain
4:30 PM 77.0 °F - 71.6 °F 83% - 4.3 mi WNW 8.1 mph - N/A Rain Rain Showers
5:00 PM 78.8 °F - 75.2 °F 89% 29.74 in 5.6 mi West 9.2 mph - N/A Rain Light Rain Showers
5:30 PM 80.6 °F 86.2 °F 75.2 °F 84% 29.74 in 4.3 mi SSW 4.6 mph - N/A   Mostly Cloudy
6:00 PM 80.6 °F 87.1 °F 77.0 °F 89% 29.77 in 4.3 mi SSW 4.6 mph - N/A   Mostly Cloudy
6:30 PM 78.8 °F - 75.2 °F 89% - 5.6 mi SE 9.2 mph - N/A   Scattered Clouds
7:00 PM 79 °F - 75 °F 85% 29.79 in 5 mi South 9.2 mph - -   Overcast
7:00 PM 78.8 °F - 73.4 °F 83% 29.77 in 6.2 mi SSE 10.4 mph - N/A   Mostly Cloudy
7:30 PM 78.8 °F - 73.4 °F 83% 29.80 in 6.2 mi SE 9.2 mph - N/A   Scattered Clouds
8:00 PM 78.8 °F - 73.4 °F 83% 29.80 in 4.3 mi SSE 8.1 mph - N/A   Unknown
8:30 PM 78.8 °F - 73.4 °F 83% 29.80 in 4.3 mi SSE 4.6 mph - N/A   Mostly Cloudy
9:00 PM 78.8 °F - 73.4 °F 83% 29.80 in 4.3 mi SW 4.6 mph - N/A   Mostly Cloudy
9:30 PM 78.8 °F - 73.4 °F 83% 29.80 in 5.0 mi SSW 4.6 mph - N/A   Mostly Cloudy
10:00 PM 78 °F - 75 °F 88% 29.81 in 4 mi SSW 4.6 mph - -   Partly Cloudy
10:00 PM 78.8 °F - 73.4 °F 83% 29.80 in 4.3 mi SSW 4.6 mph - N/A   Mostly Cloudy
10:30 PM 78.8 °F - 73.4 °F 83% 29.80 in 5.6 mi Variable 3.5 mph - N/A   Scattered Clouds
11:00 PM 78.8 °F - 73.4 °F 83% 29.80 in 5.0 mi WSW 2.3 mph - N/A   Mostly Cloudy
11:30 PM 77.0 °F - 73.4 °F 89% 29.77 in 1.6 mi WSW 2.3 mph - N/A   Scattered Clouds